Location: Spring Creek
(38.2870°N, 100.2160°W)
Time: 23:40:01
(UTC+00:00)

Cosmos 1470 Rocket - Pass Details

Date: 08 May 2021
Orbit: 603 x 634 km, 82.5° (Epoch: 21 June)

Event Time Altitude Azimuth Distance (km) Brightness Sun altitude
Rises 03:45:04 0° 2° (N) 2,933 7.7 -21.4°
Reaches altitude 10° 03:47:28 10° 11° (N) 2,023 6.6 -21.8°
Enters shadow 03:51:14 35° 66° (ENE) 1,026 4.5 -22.3°
